Regional Weather Roundup
Issued by NWS

Home | Current Version | Previous Version | Text Only | Print | Product List | Glossary Off
Versions: 1 2 3 4 5 6 7 8 9 10 11 12 13 14 15 16 17 18 19 20 21 22 23 24 25 26 27 28 29 30 31 32 33 34 35 36 37 38 39 40 41 42 43 44 45 46 47 48 49 50

359
ASUS45 KSLC 271010
RWRUT

UTAH REGIONAL WEATHER ROUNDUP
NATIONAL WEATHER SERVICE SALT LAKE CITY UT
400 AM MDT THU JUL 27 2017

UTZ001>011-023>025-271100-

NORTHERN UTAH

CITY           SKY/WX    TMP DP  RH WIND       PRES   REMARKS
BRIGHAM CITY   PTCLDY    65  53  65 NW3       30.18R
HILL AFB       CLEAR     64  56  73 E12       30.20S
LOGAN          PTCLDY    63  57  81 W3        30.19S
OGDEN          CLEAR     66  56  70 S6        30.18R
SALT LAKE CITY PTCLDY    69  58  67 SE3       30.16S
TOOELE VALLEY  CLEAR     63  54  72 CALM      30.19R
WENDOVER       CLEAR     66  54  65 SW3       30.19R
HEBER CITY     PTCLDY    55  50  82 CALM      30.27S
WEST JORDAN    CLEAR     65  62  91 CALM      30.20S

$$

UTZ011>015-024>027-271100-

CENTRAL/NORTHEAST UTAH

CITY           SKY/WX    TMP DP  RH WIND       PRES   REMARKS
PROVO AIRPORT  CLEAR     65  58  78 S6        30.21
MOAB/CANYONLAN CLEAR     70  64  81 CALM      30.10F
DELTA          CLEAR     61  52  72 E5        30.20F
PRICE          CLOUDY    66  58  75 N7        30.24S
RICHFIELD      CLEAR     59  59 100 CALM      30.26F
ROOSEVELT      CLEAR     61  55  82 W3        30.23S
VERNAL         CLEAR     65  54  67 NW3       30.21S

$$

UTZ013>016-019>022-027-271100-

SOUTHERN UTAH

CITY           SKY/WX    TMP DP  RH WIND       PRES   REMARKS
BRYCE CANYON   CLEAR     53  51  93 W6        30.39F
CEDAR CITY     CLEAR     61  59  93 NE5       30.24S
MILFORD        CLEAR     62  51  67 W9        30.20F
ST GEORGE      MOSUNNY   76  66  71 SE6       30.04S
HANKSVILLE     CLEAR     70  63  78 CALM      30.15S
KANAB          CLEAR     66  59  77 E3        30.23S
BLANDING       CLEAR     61  52  71 CALM      30.28S

$$

REGIONAL REPORTS     COLORADO/ARIZONA

CITY           SKY/WX    TMP DP  RH WIND       PRES   REMARKS
CRAIG, CO      CLEAR     56  53  90 CALM      30.29S
GRAND JUNCTION CLEAR     67  59  75 SE7       30.16R
RIFLE, CO      CLEAR     63  60  90 E3        30.24R
MONTROSE, CO   CLEAR     65  56  72 SE9       30.25S
CORTEZ, CO     CLEAR     59  55  87 NE6       30.22F
COLORADO CITY    N/A     68  64  88 CALM      30.20F
PAGE, AZ       CLEAR     78  59  51 NW5       30.11R
GRAND CANYON   CLEAR     56  53  90 NE5       30.31F
KINGMAN, AZ    CLEAR     73  65  75 CALM      30.07S
FLAGSTAFF, AZ  CLEAR     58  55  90 CALM      30.33S

$$

REGIONAL REPORTS    NEVADA/IDAHO/WYOMING

CITY           SKY/WX    TMP DP  RH WIND       PRES   REMARKS
LAS VEGAS, NV  PTCLDY    88  63  43 N5        29.96R
ELY, NY          N/A    N/A N/A N/A MISG      30.36R
ELKO, NV       MOCLDY    59  49  69 SW5       30.23R
POCATELLO, ID  CLOUDY    59  56  89 E6        30.20F
BURLEY, ID     MOCLDY    63  55  75 SE3       30.15F
FORT BRIDGER,    N/A     55  53  92 W7        30.37S
EVANSTON, WY   CLOUDY    53  50  89 SW9       30.34S
ROCK SPRINGS,  CLOUDY    61  51  70 SW7       30.31F
KEMMERER, WY     N/A     55  48  76 CALM      30.36S

$$




USA.gov is the U.S. government's official web portal to all federal, state and local government web resources and services.